Regional Weather Roundup
Issued by NWS

Home | Current Version | Previous Version | Text Only | Print | Product List | Glossary On
Versions: 1 2 3 4 5 6 7 8 9 10 11 12 13 14 15 16 17 18 19 20 21 22 23 24 25 26 27 28 29 30 31 32 33 34 35 36 37 38 39 40 41 42 43 44 45 46 47 48 49 50
000
ASUS43 KDMX 161606
RWRIA

WEATHER ROUNDUP FOR IOWA
NATIONAL WEATHER SERVICE DES MOINES IA
1100 AM CDT WED AUG 16 2017

NOTE: "FAIR" INDICATES FEW OR NO CLOUDS BELOW 12,000 FEET WITH NO
SIGNIFICANT WEATHER AND/OR OBSTRUCTIONS TO VISIBILITY.

* - THESE STATIONS ARE NOT NWS STATIONS...THUS NOT UNDER NWS
QUALITY CONTROL.  THEY ALSO DO NOT REPORT WEATHER SUCH
AS PRECIPITATION OR FOG.

IAZ001>003-012>014-020>022-031>034-043>046-161700-
   NORTHWEST IOWA

CITY           SKY/WX    TMP DP  RH WIND       PRES   REMARKS
CARROLL *      CLOUDY    75  73  94 SE13      29.79F
CHEROKEE *     CLOUDY    68  68 100 NE5       29.79F
DENISON *      CLOUDY    73  72  94 S8G15     29.79F
LE MARS *      LGT RAIN  70  70 100 CALM      29.79R
ORANGE CITY *  LGT RAIN  70  70 100 E7        29.79F
SHELDON *      DRIZZLE   68  66  94 E8G15     29.79F
SIOUX CITY     LGT RAIN  70  70 100 E12       29.73F FOG
SPENCER        LGT RAIN  68  67  96 E8        29.83S FOG
STORM LAKE *   LGT RAIN  68  68 100 VRB5      29.81F VSB 3/4
$$

IAZ055>058-069>071-079>083-090>094-161700-
   SOUTHWEST IOWA

CITY           SKY/WX    TMP DP  RH WIND       PRES   REMARKS
ATLANTIC *     RAIN      72  72 100 SE7G16    29.78F VSB 3/4
AUDUBON *      CLOUDY    73  70  88 SE8       29.81S
CLARINDA *     CLOUDY    72  72 100 E12       29.76F FOG
COUNCIL BLFS * CLOUDY    75  75 100 SE12      29.73F
CRESTON *      CLOUDY    73  72  94 S14       29.84S
HARLAN  *      LGT RAIN  72  72 100 SE10      29.80F
LAMONI         CLOUDY    75  73  93 SE7       29.84F
RED OAK *      PTSUNNY   72  70  94 E16G22    29.70F
SHENANDOAH *   CLOUDY    73  72  94 VRB6G15   29.76F
$$

IAZ047>049-059>061-072>074-084-161700-
   CENTRAL IOWA

CITY           SKY/WX    TMP DP  RH WIND       PRES   REMARKS
AMES           CLOUDY    76  73  91 SE13      29.83F
ANKENY *       MOSUNNY   79  72  78 SE10G17   29.82F HX  82
BOONE *        CLOUDY    75  72  88 SE14      29.82F
CHARITON *     PTSUNNY   75  73  94 S13       29.84F
DES MOINES     CLOUDY    78  72  81 SE13      29.81F HX  80
GRINNELL*      PTSUNNY   78  72  82 SE15      29.89S
KNOXVILLE *    CLOUDY    77  72  83 SE16      29.83F
MARSHALLTOWN   CLOUDY    77  72  84 SE13      29.86S
NEWTON *       CLOUDY    77  73  88 SE13G21   29.85F
PELLA *        PTSUNNY   78  71  80 SE9       29.86F HX  80
PERRY *        CLOUDY    77  73  88 SE12G18   29.81F
$$

IAZ004>006-015-016-023>025-035-036-161700-
   NORTH CENTRAL IOWA

CITY           SKY/WX    TMP DP  RH WIND       PRES   REMARKS
ALGONA *       CLOUDY    72  72 100 E9        29.84F
CLARION *      CLOUDY    75  75 100 SE12      29.85S
ESTHERVILLE    CLOUDY    66  66 100 E8        29.84F FOG
FORT DODGE *   CLOUDY    75  68  78 SE12      29.84R
MASON CITY     CLOUDY    70  67  90 SE13      29.88F FOG
FOREST CITY *  CLOUDY    70  68  94 SE9       29.87F FOG
WEBSTER CITY * CLOUDY    77  70  78 SE15      29.82S
IOWA FALLS *   CLOUDY    74  70  87 E13       29.87F
$$

IAZ007>011-017>019-026>030-037>042-050>054-066-161700-
   NORTHEAST IOWA

CITY           SKY/WX    TMP DP  RH WIND       PRES   REMARKS
CEDAR RAPIDS   SUNNY     79  73  82 SE13      29.88F HX  82
CHARLES CITY * CLOUDY    73  72  94 SE9       29.90F
CLINTON *      SUNNY     78  71  79 E10       29.94F HX  80
DECORAH *      SUNNY     73  66  78 VRB7G15   29.92F
DUBUQUE        SUNNY     75  68  78 SE9       29.95F
MONTICELLO *   SUNNY     77  70  78 VRB7G13   29.91F
OELWEIN *      SUNNY     75  72  88 SE12      29.90F
WATERLOO       SUNNY     78  68  71 E12       29.87F HX  80
$$

IAZ064-065-067-068-078-161700-
   EAST CENTRAL IOWA

CITY           SKY/WX    TMP DP  RH WIND       PRES   REMARKS
DAVENPORT      SUNNY     80  70  71 E12       29.94F HX  83
IOWA CITY      MOSUNNY   81  72  74 E13       29.90F HX  85
MT. PLEASANT * CLOUDY    80  72  77 SE12      29.90F HX  84
MUSCATINE *    MOSUNNY   82  72  69 SE13      29.90F HX  87
QUAD CITIES    SUNNY     82  71  69 SE10      29.91F HX  86
$$

IAZ062-063-075>077-085>089-095>099-161700-
   SOUTHEAST IOWA

CITY           SKY/WX    TMP DP  RH WIND       PRES   REMARKS
BURLINGTON     PTSUNNY   79  73  82 SE12      29.90F HX  82
FAIRFIELD *    PTSUNNY   81  70  69 SE13G20   29.88F HX  84
FORT MADISON * CLOUDY    79  73  83 SE7       29.92F HX  82
KEOKUK *       CLOUDY    77  73  88 SE7       29.90S
OSKALOOSA *      N/A     80  72  77 S14       29.87F HX  84
CENTERVILLE *  LGT RAIN  73  73 100 CALM      29.87F
OTTUMWA        PTSUNNY   80  74  81 SE13      29.86F HX  85
WASHINGTON *   PTSUNNY   81  73  78 SE12G18   29.90F HX  85
$$

ABBREVIATIONS USED IN REMARKS
   TC - TEMPERATURES IN CELSIUS
  WCI - WIND CHILL INDEX
   HX - HEAT INDEX
  VSB - VISIBILITY
$$





USA.gov is the U.S. government's official web portal to all federal, state and local government web resources and services.